{"data":{"norad_id":49747,"epoch":"2026-05-25T01:48:59.785344Z","epoch_age_seconds":61772,"freshness":"FRESH","line1":"1 49747U 21115Z   26145.07569196 -.00000886  00000+0 -37570-4 0  9991","line2":"2 49747  53.2137 166.2085 0001030  79.1532 280.9576 15.08840436247068","mean_motion":15.08840436,"eccentricity":0.000103,"inclination_deg":53.2137,"raan_deg":166.2085,"arg_perigee_deg":79.1532,"mean_anomaly_deg":280.9576,"bstar":-3.757e-5,"rev_number":24706,"period_min":95.437527099784,"perigee_km":539.02951474405,"apogee_km":540.45459782965,"semimajor_km":6917.8790562868,"source":"CELESTRAK","updated_at":"2026-05-25T13:38:16.836131Z"}}